Torna al catalogo

STARLINK-37409

AttivoComunicazioniSSO
NORAD 68819·PAYLOAD·🇺🇸 United States

Lanciato Apr 23, 2026 da Vandenberg Space Force Base

Loading…

Prossimi Passaggi (prossime 24 ore)

TLE

AggiornatoSource: CelesTrak SupGP

Epoca: Sep 14, 2026, 21:44 UTC

1 68819C 26089T   26257.90604167  .00076562  00000+0  23778-2 0  2573
2 68819  97.2851 103.7736 0001897  92.1885 263.9962 15.33384791    13

Traccia STARLINK-37409 in tempo reale con AllMySat

Download on the App Store